Regional Weather Roundup
Issued by NWS Cleveland, OH

Home | Current Version | Previous Version | Graphics & Text | Print | Product List | Glossary On
Versions: 1 2 3 4 5 6 7 8 9 10 11 12 13 14 15 16 17 18 19 20 21 22 23 24 25 26 27 28 29 30 31 32 33 34 35 36 37 38 39 40 41 42 43 44 45 46 47 48 49 50
000
ASUS41 KCLE 231010
RWRCLE
OHIO REGIONAL WEATHER ROUNDUP
NATIONAL WEATHER SERVICE CLEVELAND, OH
600 AM EDT SAT MAY 23 2015

NOTE: "FAIR" INDICATES FEW OR NO CLOUDS BELOW 12,000 FEET WITH NO
SIGNIFICANT WEATHER AND/OR OBSTRUCTIONS TO VISIBILITY.

OHZ001>008-015>018-024>027-034-035-043-044-231100-
   NORTHWEST OHIO

CITY           SKY/WX    TMP DP  RH WIND       PRES   REMARKS
DEFIANCE       PTCLDY    47  39  74 NE3       30.36R
FINDLAY        CLEAR     47  36  65 E3        30.35R
TOLEDO EXPRESS PTCLDY    42  40  92 CALM      30.36R
TOLEDO EXEC    PTCLDY    46  43  89 CALM      30.37R
LIMA           CLEAR     44  37  76 CALM      30.35R
$$

OHZ009>014-019>023-028>033-038-089-231100-
   NORTHEAST OHIO

CITY           SKY/WX    TMP DP  RH WIND       PRES   REMARKS
CLE-HOPKINS    PTCLDY    40  32  73 S5        30.40R
CLE-LAKEFRONT  FAIR      46  30  53 SE9       30.37R
CUY CO. ARPT   NOT AVBL
LORAIN-ELYRIA  CLEAR     40  33  76 CALM      30.38R
ASHTABULA      CLEAR     33  31  92 CALM      30.39R
AKRON-CANTON   PTCLDY    44  30  57 S3        30.38R
WOOSTER        CLEAR     35  31  85 CALM      30.39R
MANSFIELD      CLEAR     43  35  73 S7        30.36R
YOUNGSTOWN     PTCLDY    32  29  88 E3        30.38R
$$

OHZ042-051>053-060>062-070>072-077>081-231100-
  SOUTHWEST OHIO

CITY           SKY/WX    TMP DP  RH WIND       PRES   REMARKS
CINC-COVINGTON CLOUDY    56  49  77 N5        30.33R
CINC-LUNKEN    CLOUDY    50  49  96 NE3       30.35R
HAMILTON       CLOUDY    50  49  96 CALM      30.36R
DAYTON         MOCLDY    52  39  61 E6        30.35R
WRIGHT-PAT AFB MOCLDY    48  45  90 NW2       30.35R
DAYTON GENERAL MOCLDY    54  41  61 E6        30.34R
WILMINGTON     CLOUDY    52  39  61 E5        30.35R
$$

OHZ036-037-039>041-045>050-054>059-063>069-073>076-082>088-231100-
  CENTRAL AND SOUTHEAST OHIO

CITY           SKY/WX    TMP DP  RH WIND       PRES   REMARKS
COLUMBUS       PTCLDY    46  37  71 CALM      30.36R
OSU AIRPORT    PTCLDY    47  35  63 CALM      30.36R
BOLTON FIELD   NOT AVBL
RICKENBACK AFB PTCLDY    48  37  65 CALM      30.36R
NEWARK         CLEAR     40  38  93 CALM      30.37R
MARION         CLEAR     43  35  73 CALM      30.37R
LANCASTER      PTCLDY    44  39  82 S5        30.36R
ZANESVILLE     CLEAR     40  36  86 CALM      30.38R
NEW PHILLY     CLEAR     40  36  86 CALM      30.40R
$$


USA.gov is the U.S. government's official web portal to all federal, state and local government web resources and services.